Fergus Falls, MN

11:39 PM CST on December 10, 2019 (GMT -0600)
Fergus Falls Municipal-Mickelson

Weather History for KFFM - October, 2019

Change the Weather History Date:

Saturday, October 12, 2019

  Actual Average Record
Temperature  
Mean Temperature 32 °F -  
Max Temperature 33 °F 57 °F 83 °F (1956)
Min Temperature 30 °F 35 °F 20 °F (1993)
Degree Days  
Heating Degree Days 34    
Moisture  
Dew Point 31 °F    
Average Humidity 97    
Maximum Humidity 100    
Minimum Humidity 87    
Precipitation  
Precipitation 0.04 in - - ()
Sea Level Pressure  
Sea Level Pressure 29.51 in    
Wind  
Wind Speed 20 mph ()    
Max Wind Speed 28 mph    
Max Gust Speed 37 mph    
Visibility 3.2 miles    
Events Rain , Snow    
Averages and records for this station are not official NWS values.
T = Trace of Precipitation, MM = Missing Value Source: Averaged Metar Reports

Daily Weather History Graph

Daily Weather History Graph

Search for Another Location

Airport or City:

Astronomy

Oct. 12, 2019 Rise Set
Actual Time 7:37 AM CDT 6:43 PM CDT
Civil Twilight 7:07 AM CDT 7:14 PM CDT
Nautical Twilight 6:32 AM CDT 7:48 PM CDT
Astronomical Twilight 5:57 AM CDT 8:23 PM CDT
Moon 6:47 PM CDT (10/12) 6:07 AM CDT (10/12)
Length of Visible Light 12h 06m
Length of Day
11h 06m
Waxing Gibbous, 99% of the Moon is Illuminated
Oct 12
Waxing Gibbous
Oct 13
Full
Oct 21
Last Quarter
Oct 27
New
Nov 4
First Quarter

Hourly Weather History & Observations

Time (CDT) Temp. Windchill Dew Point Humidity Pressure Visibility Wind Dir Wind Speed Gust Speed Precip Events Conditions
12:15 AM 30.2 °F 16.2 °F 28.4 °F 93% 29.51 in 2.5 mi West 25.3 mph 34.5 mph N/A Snow Light Snow
12:19 AM 30.2 °F 15.7 °F 28.4 °F 93% 29.51 in 2.5 mi West 27.6 mph 32.2 mph N/A Snow Light Snow
12:37 AM 30.2 °F 16.5 °F 28.4 °F 93% 29.51 in 1.8 mi West 24.2 mph 32.2 mph N/A Snow Light Snow
12:56 AM 30.2 °F 17.4 °F 30.2 °F 100% 29.50 in 2.5 mi West 20.7 mph 33.4 mph N/A Snow Light Snow
1:15 AM 30.2 °F 15.9 °F 28.4 °F 93% 29.49 in 1.8 mi West 26.5 mph 36.8 mph N/A Snow Light Snow
1:16 AM 30.2 °F 16.2 °F 28.4 °F 93% 29.49 in 1.8 mi West 25.3 mph 36.8 mph N/A Snow Light Snow
1:35 AM 30.2 °F 16.8 °F 30.2 °F 100% 29.49 in 2.0 mi West 23.0 mph 32.2 mph N/A Rain Light Freezing Rain
1:36 AM 30.2 °F 16.5 °F 30.2 °F 100% 29.48 in 2.0 mi West 24.2 mph 32.2 mph N/A Rain Light Freezing Rain
1:58 AM 30.2 °F 16.5 °F 30.2 °F 100% 29.48 in 2.5 mi West 24.2 mph 29.9 mph N/A   Overcast
2:16 AM 30.2 °F 15.9 °F 30.2 °F 100% 29.48 in 2.0 mi West 26.5 mph 34.5 mph N/A Snow Light Snow
2:35 AM 30.2 °F 16.8 °F 30.2 °F 100% 29.47 in 2.0 mi West 23.0 mph 32.2 mph 0.01 in Snow Light Snow
2:55 AM 30.2 °F 16.2 °F 30.2 °F 100% 29.47 in 1.8 mi West 25.3 mph 31.1 mph 0.01 in Snow Light Snow
2:56 AM 30.2 °F 16.8 °F 30.2 °F 100% 29.47 in 1.8 mi West 23.0 mph 31.1 mph N/A Snow Light Snow
3:15 AM 30.2 °F 17.4 °F 30.2 °F 100% 29.46 in 2.5 mi West 20.7 mph 28.8 mph N/A Snow Light Snow
3:20 AM 30.2 °F 16.5 °F 30.2 °F 100% 29.46 in 2.5 mi West 24.2 mph 31.1 mph N/A Snow Light Snow
3:37 AM 30.2 °F 16.2 °F 30.2 °F 100% 29.46 in 4.0 mi West 25.3 mph 33.4 mph N/A   Light Freezing Rain
3:55 AM 30.2 °F 16.8 °F 30.2 °F 100% 29.45 in 3.0 mi West 23.0 mph 29.9 mph N/A Snow Light Snow
4:15 AM 30.2 °F 16.5 °F 30.2 °F 100% 29.45 in 2.0 mi West 24.2 mph 32.2 mph N/A Snow Light Snow
4:16 AM 30.2 °F 16.2 °F 30.2 °F 100% 29.45 in 2.0 mi West 25.3 mph 29.9 mph N/A Snow Light Snow
4:35 AM 30.2 °F 16.8 °F 30.2 °F 100% 29.45 in 3.0 mi West 23.0 mph 27.6 mph N/A Snow Light Snow
4:36 AM 30.2 °F 16.5 °F 30.2 °F 100% 29.45 in 3.0 mi West 24.2 mph 27.6 mph N/A Snow Light Snow
4:59 AM 30.2 °F 16.5 °F 30.2 °F 100% 29.45 in 7.0 mi West 24.2 mph 29.9 mph N/A   Overcast
5:16 AM 30.2 °F 17.1 °F 30.2 °F 100% 29.45 in 7.0 mi West 21.9 mph 28.8 mph N/A   Overcast
5:36 AM 30.2 °F 17.4 °F 30.2 °F 100% 29.45 in 4.0 mi West 20.7 mph 27.6 mph N/A Rain Light Freezing Rain
5:55 AM 30.2 °F 17.1 °F 30.2 °F 100% 29.44 in 3.0 mi West 21.9 mph - N/A Snow Light Snow
5:56 AM 30.2 °F 17.4 °F 30.2 °F 100% 29.44 in 3.0 mi West 20.7 mph - N/A Snow Light Snow
6:15 AM 30.2 °F 18.1 °F 30.2 °F 100% 29.44 in 5.0 mi West 18.4 mph 26.5 mph N/A Snow Light Snow
6:19 AM 30.2 °F 17.1 °F 30.2 °F 100% 29.44 in 5.0 mi West 21.9 mph 27.6 mph N/A Snow Light Snow
6:38 AM 30.2 °F 17.1 °F 30.2 °F 100% 29.44 in 7.0 mi West 21.9 mph 28.8 mph N/A Snow Light Snow
6:55 AM 30.2 °F 17.8 °F 30.2 °F 100% 29.45 in 7.0 mi West 19.6 mph 25.3 mph N/A Snow Light Snow
7:15 AM 30.2 °F 18.1 °F 30.2 °F 100% 29.44 in 4.0 mi West 18.4 mph 24.2 mph N/A Snow Light Snow
7:16 AM 30.2 °F 18.1 °F 30.2 °F 100% 29.44 in 4.0 mi West 18.4 mph 24.2 mph N/A Snow Light Snow
7:35 AM 30.2 °F 17.8 °F 30.2 °F 100% 29.44 in 2.5 mi West 19.6 mph 26.5 mph N/A Snow Light Snow
7:58 AM 30.2 °F 17.8 °F 30.2 °F 100% 29.43 in 1.5 mi West 19.6 mph 25.3 mph N/A Snow Light Snow
8:17 AM 30.2 °F 17.4 °F 30.2 °F 100% 29.43 in 1.0 mi West 20.7 mph - N/A Snow Light Snow
8:36 AM 30.2 °F 18.1 °F 30.2 °F 100% 29.43 in 1.5 mi West 18.4 mph 24.2 mph N/A Snow Light Snow
8:55 AM 30.2 °F 17.8 °F 30.2 °F 100% 29.43 in 1.0 mi West 19.6 mph 24.2 mph N/A Snow Light Snow
8:56 AM 30.2 °F 18.5 °F 30.2 °F 100% 29.43 in 1.0 mi West 17.3 mph 24.2 mph N/A Snow Light Snow
9:15 AM 30.2 °F 17.4 °F 30.2 °F 100% 29.43 in 1.5 mi West 20.7 mph 27.6 mph N/A Snow Light Snow
9:19 AM 30.2 °F 18.1 °F 30.2 °F 100% 29.43 in 1.5 mi West 18.4 mph 27.6 mph N/A   Overcast
9:37 AM 30.2 °F 17.8 °F 30.2 °F 100% 29.44 in 1.5 mi West 19.6 mph 25.3 mph 0.01 in Snow Light Snow
9:56 AM 30.2 °F 17.8 °F 30.2 °F 100% 29.44 in 1.0 mi West 19.6 mph 24.2 mph N/A Snow Light Snow
10:15 AM 30.2 °F 17.8 °F 30.2 °F 100% 29.44 in 1.2 mi West 19.6 mph 25.3 mph N/A Snow Light Snow
10:16 AM 30.2 °F 17.8 °F 30.2 °F 100% 29.44 in 1.2 mi West 19.6 mph 25.3 mph N/A Snow Light Snow
10:35 AM 30.2 °F 17.8 °F 30.2 °F 100% 29.45 in 1.8 mi West 19.6 mph 25.3 mph N/A Snow Light Snow
10:36 AM 30.2 °F 17.8 °F 30.2 °F 100% 29.44 in 1.8 mi West 19.6 mph 25.3 mph N/A Snow Light Snow
10:59 AM 32.0 °F 20.1 °F 30.2 °F 93% 29.46 in 1.5 mi WNW 19.6 mph 25.3 mph N/A Snow Light Snow
11:16 AM 32.0 °F 20.8 °F 30.2 °F 93% 29.46 in 1.5 mi West 17.3 mph 26.5 mph 0.01 in Snow Light Snow
11:55 AM 32.0 °F 21.2 °F 30.2 °F 93% 29.46 in 1.8 mi West 16.1 mph 24.2 mph 0.01 in Snow Light Snow
11:56 AM 32.0 °F 21.2 °F 30.2 °F 93% 29.46 in 1.8 mi West 16.1 mph 24.2 mph N/A Snow Light Snow
12:15 PM 32.0 °F 20.8 °F 30.2 °F 93% 29.47 in 2.0 mi West 17.3 mph 23.0 mph N/A Snow Light Snow
12:20 PM 32.0 °F 20.5 °F 30.2 °F 93% 29.47 in 3.0 mi West 18.4 mph - N/A Snow Light Snow
12:37 PM 33.8 °F 22.5 °F 30.2 °F 87% 29.47 in 2.0 mi West 19.6 mph 25.3 mph N/A Snow Snow
12:55 PM 33.8 °F 23.2 °F 30.2 °F 87% 29.48 in 4.0 mi West 17.3 mph 26.5 mph N/A   Overcast
1:15 PM 33.8 °F 22.5 °F 30.2 °F 87% 29.48 in 10.0 mi West 19.6 mph 26.5 mph N/A   Overcast
1:16 PM 33.8 °F 22.5 °F 30.2 °F 87% 29.48 in 7.0 mi WNW 19.6 mph 26.5 mph N/A   Overcast
1:35 PM 33.8 °F 22.5 °F 30.2 °F 87% 29.49 in 2.5 mi WNW 19.6 mph - N/A   Overcast
1:36 PM 33.8 °F 22.5 °F 30.2 °F 87% 29.49 in 2.5 mi WNW 19.6 mph - N/A   Overcast
1:59 PM 33.8 °F 23.9 °F 32.0 °F 93% 29.49 in 4.0 mi West 15.0 mph 19.6 mph N/A   Overcast
2:16 PM 33.8 °F 22.8 °F 32.0 °F 93% 29.49 in 5.0 mi WNW 18.4 mph 25.3 mph N/A   Overcast
2:36 PM 33.8 °F 23.5 °F 32.0 °F 93% 29.49 in 5.0 mi WNW 16.1 mph 23.0 mph N/A Snow Light Snow
2:55 PM 33.8 °F 23.5 °F 32.0 °F 93% 29.49 in 5.0 mi West 16.1 mph 23.0 mph N/A   Overcast
2:56 PM 33.8 °F 23.2 °F 32.0 °F 93% 29.49 in 5.0 mi West 17.3 mph 23.0 mph N/A   Overcast
3:15 PM 33.8 °F 22.5 °F 32.0 °F 93% 29.50 in 5.0 mi WNW 19.6 mph - N/A   Overcast
3:19 PM 33.8 °F 22.2 °F 32.0 °F 93% 29.50 in 5.0 mi WNW 20.7 mph 26.5 mph N/A   Overcast
3:37 PM 33.8 °F 22.5 °F 32.0 °F 93% 29.51 in 10.0 mi NW 19.6 mph 29.9 mph N/A   Overcast
3:56 PM 33.8 °F 21.9 °F 32.0 °F 93% 29.52 in 4.0 mi NW 21.9 mph 25.3 mph N/A Snow Light Snow
4:15 PM 33.8 °F 22.5 °F 32.0 °F 93% 29.53 in 10.0 mi WNW 19.6 mph 27.6 mph N/A Snow Light Snow
4:16 PM 33.8 °F 23.2 °F 32.0 °F 93% 29.53 in 10.0 mi WNW 17.3 mph 27.6 mph N/A Snow Light Snow
4:35 PM 33.8 °F 23.2 °F 32.0 °F 93% 29.53 in 2.5 mi WNW 17.3 mph - N/A Snow Light Snow
4:36 PM 33.8 °F 23.2 °F 32.0 °F 93% 29.53 in 2.5 mi WNW 17.3 mph - N/A Snow Light Snow
4:58 PM 33.8 °F 23.2 °F 32.0 °F 93% 29.55 in 4.0 mi NW 17.3 mph 24.2 mph N/A Rain Light Rain
5:16 PM 33.8 °F 23.9 °F 32.0 °F 93% 29.55 in 7.0 mi WNW 15.0 mph 23.0 mph N/A Rain Light Rain
5:35 PM 33.8 °F 23.9 °F 32.0 °F 93% 29.56 in 7.0 mi WNW 15.0 mph 23.0 mph N/A Rain Light Rain
5:55 PM 33.8 °F 24.8 °F 32.0 °F 93% 29.57 in 2.5 mi WNW 12.7 mph 23.0 mph 0.01 in   Overcast
5:56 PM 33.8 °F 23.9 °F 32.0 °F 93% 29.57 in 2.0 mi WNW 15.0 mph 23.0 mph N/A   Overcast
6:19 PM 33.8 °F 24.3 °F 32.0 °F 93% 29.58 in 1.5 mi WNW 13.8 mph - N/A   Overcast
6:36 PM 33.8 °F 23.5 °F 32.0 °F 93% 29.59 in 2.5 mi WNW 16.1 mph - N/A Rain Light Rain
6:56 PM 33.8 °F 23.5 °F 32.0 °F 93% 29.59 in 2.5 mi WNW 16.1 mph - N/A Rain Light Rain
7:15 PM 33.8 °F 23.9 °F 32.0 °F 93% 29.60 in 3.0 mi WNW 15.0 mph 19.6 mph N/A   Overcast
7:16 PM 33.8 °F 23.9 °F 32.0 °F 93% 29.60 in 3.0 mi WNW 15.0 mph - N/A Rain Light Rain
7:35 PM 33.8 °F 23.9 °F 32.0 °F 93% 29.61 in 3.0 mi WNW 15.0 mph 20.7 mph N/A Snow Light Snow
7:39 PM 33.8 °F 24.3 °F 32.0 °F 93% 29.61 in 3.0 mi WNW 13.8 mph - N/A Snow Light Snow
7:57 PM 32.0 °F 22.5 °F 32.0 °F 100% 29.61 in 2.0 mi West 12.7 mph 17.3 mph N/A Snow Light Snow
8:15 PM 32.0 °F 21.6 °F 32.0 °F 100% 29.62 in 2.0 mi West 15.0 mph - N/A Snow Light Snow
8:35 PM 32.0 °F 21.2 °F 32.0 °F 100% 29.62 in 2.0 mi West 16.1 mph 20.7 mph N/A Snow Light Snow
8:55 PM 32.0 °F 21.6 °F 32.0 °F 100% 29.62 in 2.5 mi West 15.0 mph - N/A Snow Light Snow
8:56 PM 32.0 °F 21.6 °F 32.0 °F 100% 29.62 in 2.5 mi WNW 15.0 mph - N/A Snow Light Snow
9:18 PM 32.0 °F 22.1 °F 32.0 °F 100% 29.62 in 2.5 mi WNW 13.8 mph 19.6 mph N/A Snow Light Snow
9:36 PM 32.0 °F 21.2 °F 32.0 °F 100% 29.63 in 2.5 mi WNW 16.1 mph 21.9 mph N/A Snow Light Snow
9:56 PM 32.0 °F 21.2 °F 32.0 °F 100% 29.63 in 3.0 mi WNW 16.1 mph 19.6 mph N/A Snow Light Snow
10:15 PM 32.0 °F 21.2 °F 32.0 °F 100% 29.63 in 4.0 mi WNW 16.1 mph 19.6 mph N/A   Light Drizzle
10:16 PM 32.0 °F 21.2 °F 32.0 °F 100% 29.63 in 4.0 mi WNW 16.1 mph - N/A   Light Drizzle
10:35 PM 32.0 °F 21.6 °F 32.0 °F 100% 29.63 in 3.0 mi WNW 15.0 mph 20.7 mph N/A Snow Light Snow
10:39 PM 32.0 °F 22.5 °F 32.0 °F 100% 29.63 in 3.0 mi WNW 12.7 mph 20.7 mph N/A Snow Light Snow
10:58 PM 32.0 °F 21.6 °F 32.0 °F 100% 29.63 in 2.0 mi WNW 15.0 mph 18.4 mph N/A   Overcast
11:15 PM 32.0 °F 22.1 °F 32.0 °F 100% 29.63 in 2.5 mi WNW 13.8 mph - N/A Snow Light Snow
11:35 PM 32.0 °F 22.5 °F 32.0 °F 100% 29.63 in 2.5 mi West 12.7 mph - N/A   Overcast
11:36 PM 32.0 °F 22.1 °F 32.0 °F 100% 29.63 in 2.5 mi WNW 13.8 mph - N/A   Overcast
11:55 PM 32.0 °F 23.0 °F 32.0 °F 100% 29.63 in 3.0 mi NW 11.5 mph - N/A   Light Drizzle